Flag for Trinidad and Tobago Weather past 2 weeks in San Fernando, Trinidad and Tobago

Now
81 °F

Scattered showers. Scattered clouds.


Feels Like: 86 °F
Forecast: N/A
Wind: 13 mph from East

Location: Piarco International Airport - Trinidad

Current Time: May 28, 2015 at 7:25:15 PM

Latest Report: May 28, 2015 at 6:00 PM


Visibility: N/A

Pressure: 29.86 "Hg

Humidity: 84%

Dew point: 75 °F

Location of San FernandoLocation

Historic Weather in San Fernando — Graph

°F

San Fernando temperature yesterday

Maximum temperature yesterday: 91 °F (at 1:00 PM)
Minimum temperature yesterday: 73 °F (at 5:00 AM)
Average temperature yesterday: 82 °F

Past Weeks' High & Low Weather Summary

 TemperatureHumidityPressure
High93 °F (May 19, 1:00 PM)94% (May 19, 6:00 AM)30.04 "Hg (May 19, 6:00 AM)
Low72 °F (May 26, 5:00 AM)38% (May 26, 3:00 PM)29.83 "Hg (May 28, 4:00 PM)
Average83 °F70%29.94 "Hg
* Reported May 13 5:00 PM — May 28 5:00 PM, San Fernando, Weather by CustomWeather, © 2015

Note: Actual official high and low records may vary slightly from our data, if they occured in-between our weather recording intervals... More about our weather records

Advertising

San Fernando weather history for previous 24 hours

 ConditionsComfort  
Time TempWeatherWind HumidityBarometerVisibility
5:00 PM
Thu, May 28
82 °FScattered showers. Scattered clouds.14 mph79%29.83 "Hg5 mi
4:00 PM86 °FScattered clouds.16 mph66%29.83 "HgN/A
3:00 PM84 °FScattered clouds.12 mph79%29.86 "HgN/A
2:00 PM84 °FScattered showers. Partly sunny.12 mph74%29.86 "Hg4 mi
1:00 PM88 °FScattered clouds.16 mph66%29.86 "HgN/A
12:00 PM90 °FScattered showers. Partly sunny.18 mph63%29.89 "Hg4 mi
11:00 AM90 °FScattered showers. Partly sunny.15 mph59%29.92 "Hg3 mi
10:00 AM88 °FScattered showers. Scattered clouds.12 mph66%29.92 "HgN/A
9:00 AM84 °FScattered showers. Partly sunny.14 mph79%29.92 "HgN/A
8:00 AM82 °FScattered showers. Passing clouds.7 mph89%29.92 "HgN/A
7:00 AM77 °FSprinkles. Partly sunny.8 mph94%29.92 "HgN/A
6:00 AM77 °FPassing clouds.6 mph94%29.89 "HgN/A
5:00 AM77 °FScattered showers. Passing clouds.No wind94%29.89 "HgN/A
4:00 AM77 °FPassing clouds.No wind94%29.89 "HgN/A
3:00 AM77 °FSprinkles. Partly cloudy.No wind94%29.89 "HgN/A
2:00 AM77 °FPassing clouds.No wind94%29.89 "HgN/A
1:00 AM79 °FPassing clouds.6 mph89%29.89 "HgN/A
12:00 AM77 °FPassing clouds.3 mph94%29.92 "HgN/A
11:00 PM
Wed, May 27
79 °FSprinkles. Passing clouds.8 mph89%29.92 "HgN/A
10:00 PM79 °FPassing clouds.8 mph89%29.92 "HgN/A
9:00 PM81 °FPassing clouds.9 mph84%29.92 "HgN/A
8:00 PM81 °FPassing clouds.8 mph84%29.89 "HgN/A
7:00 PM81 °FPassing clouds.8 mph84%29.89 "HgN/A
Weather by CustomWeather, © 2015

See weather overviewHow to use our weather pages